Hollywood, FL

10:01 PM EDT on June 26, 2017 (GMT -0400)
North Perry

Weather History for KHWO - September, 2013

Change the Weather History Date:

Wednesday, September 4, 2013

  Actual Average (KFLL) Record (KFLL)
Temperature  
Mean Temperature 82 °F -  
Max Temperature 89 °F 89 °F 97 °F (1998)
Min Temperature 77 °F 75 °F 68 °F (1937)
Cooling Degree Days 18    
Growing Degree Days 32 (Base 50)    
Moisture  
Dew Point 76 °F    
Average Humidity 82    
Maximum Humidity 97    
Minimum Humidity 66    
Precipitation  
Precipitation 0.56 in - - ()
Sea Level Pressure  
Sea Level Pressure 30.04 in    
Wind  
Wind Speed 3 mph (East)    
Max Wind Speed 16 mph    
Max Gust Speed 23 mph    
Visibility 9 miles    
Events Rain , Thunderstorm    
Averages and records for this station are not official NWS values.
T = Trace of Precipitation, MM = Missing Value Source: NWS Daily Summary

Daily Weather History Graph

Daily Weather History Graph

Search for Another Location

Airport or City:

Trip Planner

Search our weather history database for the weather conditions in past years. The results will help you decide how hot, cold, wet, or windy it might be!

Date:

Astronomy

Sep. 04, 2013 Rise Set
Actual Time 7:02 AM EDT 7:36 PM EDT
Civil Twilight 6:39 AM EDT 8:00 PM EDT
Nautical Twilight 6:11 AM EDT 8:27 PM EDT
Astronomical Twilight 5:43 AM EDT 8:55 PM EDT
Moon 6:12 AM EDT (9/4) 6:59 PM EDT (9/4)
Length of Visible Light 13h 21m
Length of Day
12h 34m
Waning Crescent, 1% of the Moon is Illuminated
Sep 4
Waning Crescent
Sep 5
New
Sep 12
First Quarter
Sep 19
Full
Sep 26
Last Quarter

Hourly Weather History & Observations

Time (EDT) Temp. Heat Index Dew Point Humidity Pressure Visibility Wind Dir Wind Speed Gust Speed Precip Events Conditions
12:53 AM 79.0 °F - 75.0 °F 88% 30.02 in 10.0 mi Calm Calm - N/A   Clear
1:53 AM 78.1 °F - 75.0 °F 90% 30.00 in 10.0 mi Calm Calm - N/A   Clear
2:53 AM 77.0 °F - 75.0 °F 94% 29.98 in 10.0 mi Calm Calm - N/A   Clear
3:53 AM 78.1 °F - 75.0 °F 90% 29.97 in 10.0 mi Calm Calm - N/A   Partly Cloudy
4:53 AM 78.1 °F - 75.0 °F 90% 29.97 in 10.0 mi Calm Calm - N/A   Clear
5:53 AM 78.1 °F - 75.0 °F 90% 29.99 in 10.0 mi North 3.5 mph - N/A   Clear
6:21 AM 78.8 °F - 77.0 °F 94% 30.00 in 2.0 mi South 4.6 mph - 0.20 in Rain Heavy Rain
6:32 AM 80.6 °F 87.1 °F 77.0 °F 89% 30.00 in 5.0 mi Calm Calm - 0.24 in Rain Light Rain
6:53 AM 80.1 °F 86.4 °F 78.1 °F 94% 30.01 in 10.0 mi ENE 3.5 mph - 0.24 in   Mostly Cloudy
7:53 AM 79.0 °F - 78.1 °F 97% 30.03 in 10.0 mi Calm Calm - 0.03 in   Partly Cloudy
8:53 AM 81.0 °F 89.2 °F 79.0 °F 94% 30.05 in 10.0 mi Calm Calm - N/A   Clear
9:25 AM 82.4 °F 92.4 °F 78.8 °F 89% 30.05 in 10.0 mi Calm Calm - N/A   Mostly Cloudy
9:38 AM 82.4 °F 92.4 °F 78.8 °F 89% 30.06 in 10.0 mi ESE 4.6 mph - N/A   Scattered Clouds
9:53 AM 84.9 °F 97.5 °F 79.0 °F 82% 30.06 in 10.0 mi ESE 6.9 mph - N/A   Clear
10:53 AM 87.1 °F 97.3 °F 75.9 °F 69% 30.08 in 10.0 mi ESE 9.2 mph - 0.00 in   Scattered Clouds
11:53 AM 82.9 °F 90.8 °F 75.9 °F 79% 30.08 in 3.0 mi SSE 16.1 mph 21.9 mph 0.26 in   Haze
12:02 PM 78.8 °F - 75.2 °F 89% 30.09 in 7.0 mi SSE 13.8 mph 23.0 mph 0.01 in Rain , Thunderstorm Light Rain
12:53 PM 80.1 °F 85.8 °F 77.0 °F 90% 30.07 in 10.0 mi East 3.5 mph - 0.03 in Thunderstorm Partly Cloudy
1:01 PM 80.6 °F 87.1 °F 77.0 °F 89% 30.07 in 10.0 mi Calm Calm - N/A   Clear
1:53 PM 86.0 °F 98.3 °F 78.1 °F 77% 30.05 in 10.0 mi East 5.8 mph - N/A   Clear
2:51 PM 87.8 °F 97.6 °F 75.2 °F 66% 30.04 in 10.0 mi East 8.1 mph 16.1 mph N/A   Mostly Cloudy
2:53 PM 88.0 °F 98.5 °F 75.9 °F 67% 30.04 in 10.0 mi East 5.8 mph 16.1 mph N/A   Mostly Cloudy
3:02 PM 87.8 °F 97.6 °F 75.2 °F 66% 30.03 in 10.0 mi ESE 6.9 mph - N/A   Mostly Cloudy
3:40 PM 87.8 °F 97.6 °F 75.2 °F 66% 30.03 in 10.0 mi East 8.1 mph - N/A   Mostly Cloudy
3:48 PM 87.8 °F 97.6 °F 75.2 °F 66% 30.03 in 10.0 mi East 10.4 mph - N/A   Mostly Cloudy
3:53 PM 86.0 °F 95.1 °F 75.0 °F 70% 30.03 in 10.0 mi East 8.1 mph - N/A   Scattered Clouds
4:53 PM 86.0 °F 95.1 °F 75.0 °F 70% 30.03 in 10.0 mi East 8.1 mph - N/A   Partly Cloudy
5:53 PM 84.9 °F 92.1 °F 73.9 °F 69% 30.03 in 10.0 mi East 8.1 mph - N/A   Partly Cloudy
6:53 PM 84.0 °F 91.9 °F 75.0 °F 74% 30.03 in 10.0 mi ENE 6.9 mph - N/A   Clear
7:53 PM 82.9 °F 90.8 °F 75.9 °F 79% 30.04 in 10.0 mi ENE 8.1 mph - N/A   Scattered Clouds
8:53 PM 82.9 °F 90.8 °F 75.9 °F 79% 30.06 in 10.0 mi ENE 5.8 mph - N/A   Clear
9:53 PM 82.0 °F 89.4 °F 75.9 °F 82% 30.08 in 10.0 mi NE 4.6 mph - N/A   Clear
10:53 PM 82.0 °F 89.4 °F 75.9 °F 82% 30.09 in 10.0 mi ENE 3.5 mph - N/A   Clear
11:53 PM 82.0 °F 89.4 °F 75.9 °F 82% 30.08 in 10.0 mi ENE 5.8 mph - N/A   Partly Cloudy